DAL1742 KMCO-KATL

Flight info

Callsign DAL1742
Flight time 1h 4m
Altitude 29000
Route JEEMY4 PAINN DCT SHRKS DCT LAIRI DCT LARZZ JJEDI4
Aircraft A20N/M-V/N

Departure

Time 2026-05-04 23:39
Airport Orlando International Airport (KMCO)

Arrival

Time 2026-05-05 00:43
Airport Hartsfield Jackson Atlanta International Airport (KATL)
Time Latitude Longitude Altitude Speed Heading
2026-05-04 23:12 28.42728 -81.30370 104 ft 0 kts 111°
2026-05-04 23:27 28.42729 -81.30372 103 ft 1 kts 111°
2026-05-04 23:27 28.42731 -81.30378 103 ft 1 kts 114°
2026-05-04 23:28 28.42733 -81.30384 101 ft 1 kts 121°
2026-05-04 23:28 28.42736 -81.30389 101 ft 1 kts 128°
2026-05-04 23:28 28.42740 -81.30394 101 ft 1 kts 135°
2026-05-04 23:28 28.42744 -81.30399 101 ft 1 kts 143°
2026-05-04 23:29 28.42748 -81.30403 101 ft 1 kts 149°
2026-05-04 23:29 28.42753 -81.30406 101 ft 1 kts 158°
2026-05-04 23:29 28.42758 -81.30408 102 ft 1 kts 163°
2026-05-04 23:29 28.42762 -81.30410 102 ft 0 kts 168°
2026-05-04 23:32 28.42754 -81.30409 102 ft 2 kts 185°
2026-05-04 23:32 28.42728 -81.30422 103 ft 6 kts 204°
2026-05-04 23:32 28.42679 -81.30449 102 ft 9 kts 204°
2026-05-04 23:32 28.42615 -81.30430 102 ft 11 kts 135°
2026-05-04 23:33 28.42566 -81.30353 102 ft 13 kts 121°
2026-05-04 23:33 28.42521 -81.30265 103 ft 12 kts 121°
2026-05-04 23:33 28.42477 -81.30182 103 ft 11 kts 120°
2026-05-04 23:33 28.42411 -81.30139 103 ft 10 kts 173°
2026-05-04 23:34 28.42363 -81.30091 103 ft 10 kts 99°
2026-05-04 23:34 28.42363 -81.30005 103 ft 12 kts 89°
2026-05-04 23:34 28.42363 -81.29907 103 ft 13 kts 90°
2026-05-04 23:34 28.42347 -81.29809 101 ft 13 kts 134°
2026-05-04 23:35 28.42250 -81.29794 102 ft 16 kts 181°
2026-05-04 23:35 28.42134 -81.29795 102 ft 18 kts 177°
2026-05-04 23:35 28.42001 -81.29789 102 ft 20 kts 179°
2026-05-04 23:35 28.41855 -81.29788 102 ft 22 kts 179°
2026-05-04 23:36 28.41698 -81.29787 102 ft 23 kts 179°
2026-05-04 23:36 28.41532 -81.29785 101 ft 25 kts 179°
2026-05-04 23:36 28.41356 -81.29783 101 ft 25 kts 180°
2026-05-04 23:36 28.41189 -81.29781 101 ft 24 kts 178°
2026-05-04 23:37 28.41035 -81.29780 100 ft 20 kts 179°
2026-05-04 23:37 28.40914 -81.29778 101 ft 15 kts 180°
2026-05-04 23:37 28.40835 -81.29762 99 ft 9 kts 141°
2026-05-04 23:37 28.40821 -81.29710 99 ft 6 kts 92°
2026-05-04 23:38 28.40822 -81.29647 97 ft 10 kts 90°
2026-05-04 23:38 28.40842 -81.29569 97 ft 12 kts 34°
2026-05-04 23:38 28.40931 -81.29561 97 ft 16 kts 359°
2026-05-04 23:38 28.41260 -81.29563 102 ft 89 kts 359°
2026-05-04 23:39 28.42111 -81.29572 164 ft 149 kts
2026-05-04 23:39 28.43194 -81.29564 706 ft 173 kts 11°
2026-05-04 23:39 28.44503 -81.29442 1262 ft 199 kts 14°
2026-05-04 23:39 28.45896 -81.29137 2141 ft 215 kts 16°
2026-05-04 23:40 28.47439 -81.28787 2677 ft 238 kts 17°
2026-05-04 23:40 28.49118 -81.28288 3317 ft 255 kts 22°
2026-05-04 23:40 28.50782 -81.27495 4187 ft 262 kts 30°
2026-05-04 23:40 28.52330 -81.26318 4912 ft 276 kts 34°
2026-05-04 23:41 28.54097 -81.25368 5701 ft 284 kts 15°
2026-05-04 23:41 28.56037 -81.25044 6652 ft 283 kts 359°
2026-05-04 23:41 28.57988 -81.25193 7555 ft 284 kts 347°
2026-05-04 23:41 28.59878 -81.25847 8491 ft 283 kts 334°
2026-05-04 23:42 28.61653 -81.26785 9400 ft 285 kts 333°
2026-05-04 23:42 28.63465 -81.27752 10270 ft 290 kts 330°
2026-05-04 23:42 28.65231 -81.29019 10648 ft 310 kts 321°
2026-05-04 23:42 28.66992 -81.30561 10918 ft 332 kts 321°
2026-05-04 23:43 28.68858 -81.32182 11542 ft 339 kts 321°
2026-05-04 23:43 28.70760 -81.33824 12365 ft 343 kts 321°
2026-05-04 23:43 28.72668 -81.35414 13164 ft 346 kts 327°
2026-05-04 23:43 28.74844 -81.36693 13848 ft 355 kts 338°
2026-05-04 23:44 28.77236 -81.37481 14546 ft 359 kts 348°
2026-05-04 23:44 28.79692 -81.37980 15234 ft 363 kts 348°
2026-05-04 23:44 28.82211 -81.38503 15757 ft 368 kts 347°
2026-05-04 23:44 28.84709 -81.39030 15941 ft 369 kts 347°
2026-05-04 23:45 28.87244 -81.39566 15988 ft 369 kts 347°
2026-05-04 23:45 28.89750 -81.40098 15991 ft 369 kts 347°
2026-05-04 23:45 28.92284 -81.40635 15992 ft 369 kts 347°
2026-05-04 23:45 28.94791 -81.41165 15994 ft 370 kts 348°
2026-05-04 23:46 28.97376 -81.41497 16313 ft 375 kts 352°
2026-05-04 23:46 28.99983 -81.41776 17121 ft 375 kts 351°
2026-05-04 23:46 29.02598 -81.42068 17774 ft 379 kts 351°
2026-05-04 23:46 29.05205 -81.42362 18422 ft 383 kts 350°
2026-05-04 23:47 29.07870 -81.42662 19014 ft 385 kts 350°
2026-05-04 23:47 29.10547 -81.42960 19638 ft 387 kts 350°
2026-05-04 23:47 29.13222 -81.43229 20224 ft 391 kts 351°
2026-05-04 23:47 29.15952 -81.43483 20831 ft 393 kts 351°
2026-05-04 23:48 29.18696 -81.43733 21434 ft 396 kts 350°
2026-05-04 23:48 29.21374 -81.44244 22019 ft 392 kts 339°
2026-05-04 23:48 29.23994 -81.45165 22599 ft 393 kts 338°
2026-05-04 23:48 29.26626 -81.46119 23213 ft 396 kts 337°
2026-05-04 23:49 29.29225 -81.47094 23793 ft 397 kts 336°
2026-05-04 23:49 29.31865 -81.48112 24283 ft 399 kts 336°
2026-05-04 23:49 29.34478 -81.49134 24761 ft 401 kts 335°
2026-05-04 23:49 29.37143 -81.50183 25240 ft 403 kts 335°
2026-05-04 23:50 29.39809 -81.51234 25717 ft 405 kts 335°
2026-05-04 23:50 29.42492 -81.52292 26156 ft 408 kts 335°
2026-05-04 23:50 29.45164 -81.53347 26596 ft 410 kts 335°
2026-05-04 23:50 29.47846 -81.54406 27037 ft 412 kts 334°
2026-05-04 23:51 29.50564 -81.55480 27458 ft 414 kts 334°
2026-05-04 23:51 29.53303 -81.56561 27875 ft 416 kts 334°
2026-05-04 23:51 29.56057 -81.57649 28308 ft 418 kts 334°
2026-05-04 23:51 29.58793 -81.58730 28683 ft 420 kts 334°
2026-05-04 23:52 29.61583 -81.59836 29000 ft 423 kts 334°
2026-05-04 23:52 29.64339 -81.60928 29072 ft 423 kts 334°
2026-05-04 23:52 29.69929 -81.63143 29091 ft 423 kts 334°
2026-05-04 23:53 29.75468 -81.65347 29084 ft 423 kts 334°
2026-05-04 23:53 29.81029 -81.67557 29067 ft 421 kts 334°
2026-05-04 23:54 29.86566 -81.69759 29083 ft 421 kts 333°
2026-05-04 23:54 29.92098 -81.71961 29071 ft 421 kts 333°
2026-05-04 23:55 29.97634 -81.74169 29071 ft 421 kts 333°
2026-05-04 23:56 30.05935 -81.77485 29071 ft 421 kts 333°
2026-05-04 23:56 30.11468 -81.79698 29074 ft 421 kts 333°
2026-05-04 23:57 30.16997 -81.81910 29074 ft 419 kts 333°
2026-05-04 23:57 30.22500 -81.84115 29073 ft 419 kts 333°
2026-05-04 23:58 30.28028 -81.86334 29091 ft 419 kts 333°
2026-05-04 23:58 30.30761 -81.87433 29230 ft 419 kts 333°
2026-05-04 23:58 30.33517 -81.88540 29230 ft 419 kts 333°
2026-05-04 23:59 30.39021 -81.90755 29206 ft 419 kts 333°
2026-05-04 23:59 30.44517 -81.92970 29206 ft 419 kts 333°
2026-05-05 00:00 30.50012 -81.95186 29166 ft 418 kts 333°
2026-05-05 00:00 30.55509 -81.97406 29189 ft 419 kts 333°
2026-05-05 00:01 30.61031 -81.99638 29185 ft 419 kts 333°
2026-05-05 00:01 30.66502 -82.01852 29174 ft 419 kts 333°
2026-05-05 00:02 30.72028 -82.04092 29198 ft 419 kts 333°
2026-05-05 00:02 30.77515 -82.06320 29164 ft 418 kts 333°
2026-05-05 00:03 30.83028 -82.08559 29161 ft 418 kts 333°
2026-05-05 00:03 30.88529 -82.10796 29140 ft 418 kts 333°
2026-05-05 00:04 30.94013 -82.13028 29138 ft 418 kts 333°
2026-05-05 00:04 30.99493 -82.15262 29119 ft 418 kts 333°
2026-05-05 00:05 31.05031 -82.17528 29105 ft 422 kts 334°
2026-05-05 00:05 31.10563 -82.19787 29072 ft 421 kts 334°
2026-05-05 00:06 31.16083 -82.22044 29056 ft 420 kts 334°
2026-05-05 00:06 31.21610 -82.24308 29043 ft 419 kts 334°
2026-05-05 00:07 31.27110 -82.26564 29043 ft 419 kts 334°
2026-05-05 00:07 31.32623 -82.28837 29062 ft 428 kts 335°
2026-05-05 00:08 31.38234 -82.31143 29060 ft 426 kts 335°
2026-05-05 00:08 31.43817 -82.33439 29058 ft 426 kts 335°
2026-05-05 00:09 31.49382 -82.35732 29055 ft 426 kts 335°
2026-05-05 00:09 31.54995 -82.38048 29052 ft 426 kts 335°
2026-05-05 00:10 31.60572 -82.40355 29036 ft 428 kts 335°
2026-05-05 00:10 31.66207 -82.42685 29037 ft 428 kts 335°
2026-05-05 00:11 31.71804 -82.45003 29042 ft 428 kts 335°
2026-05-05 00:11 31.77420 -82.47332 29044 ft 429 kts 335°
2026-05-05 00:12 31.82101 -82.49278 29045 ft 429 kts 335°
2026-05-05 00:12 31.87754 -82.51629 29044 ft 430 kts 336°
2026-05-05 00:13 31.93354 -82.54016 29046 ft 428 kts 332°
2026-05-05 00:13 31.98451 -82.57459 29045 ft 421 kts 319°
2026-05-05 00:14 32.02918 -82.61923 29044 ft 419 kts 315°
2026-05-05 00:14 32.07325 -82.66402 29045 ft 419 kts 315°
2026-05-05 00:15 32.11719 -82.70880 29050 ft 419 kts 315°
2026-05-05 00:15 32.16111 -82.75368 28775 ft 417 kts 315°
2026-05-05 00:15 32.18304 -82.77612 28239 ft 414 kts 315°
2026-05-05 00:16 32.20473 -82.79833 27631 ft 411 kts 315°
2026-05-05 00:16 32.22617 -82.82030 26998 ft 408 kts 315°
2026-05-05 00:16 32.24757 -82.84223 26380 ft 405 kts 315°
2026-05-05 00:16 32.26871 -82.86393 25771 ft 402 kts 315°
2026-05-05 00:17 32.28961 -82.88539 25186 ft 399 kts 316°
2026-05-05 00:17 32.31055 -82.90690 24611 ft 396 kts 316°
2026-05-05 00:17 32.33132 -82.92824 24222 ft 390 kts 316°
2026-05-05 00:17 32.35156 -82.94907 24083 ft 392 kts 316°
2026-05-05 00:18 32.37234 -82.97048 24048 ft 395 kts 316°
2026-05-05 00:18 32.39312 -82.99188 24053 ft 394 kts 316°
2026-05-05 00:18 32.41381 -83.01318 24037 ft 393 kts 316°
2026-05-05 00:18 32.43419 -83.03417 23806 ft 391 kts 316°
2026-05-05 00:19 32.45473 -83.05534 23277 ft 390 kts 316°
2026-05-05 00:19 32.47521 -83.07645 22658 ft 388 kts 316°
2026-05-05 00:19 32.49558 -83.09746 22182 ft 381 kts 316°
2026-05-05 00:19 32.51502 -83.11751 22026 ft 367 kts 316°
2026-05-05 00:20 32.53408 -83.13716 21711 ft 357 kts 316°
2026-05-05 00:20 32.55260 -83.15632 21170 ft 356 kts 315°
2026-05-05 00:20 32.57114 -83.17553 20643 ft 354 kts 315°
2026-05-05 00:20 32.58974 -83.19480 20108 ft 353 kts 315°
2026-05-05 00:21 32.60821 -83.21393 19593 ft 351 kts 315°
2026-05-05 00:21 32.62643 -83.23283 19095 ft 350 kts 315°
2026-05-05 00:21 32.64472 -83.25179 18606 ft 349 kts 315°
2026-05-05 00:21 32.66294 -83.27069 18094 ft 347 kts 315°
2026-05-05 00:22 32.68098 -83.28943 17591 ft 345 kts 316°
2026-05-05 00:22 32.69900 -83.30816 17088 ft 343 kts 316°
2026-05-05 00:22 32.71687 -83.32673 16595 ft 341 kts 316°
2026-05-05 00:22 32.73469 -83.34527 16122 ft 338 kts 316°
2026-05-05 00:23 32.75214 -83.36343 15654 ft 336 kts 316°
2026-05-05 00:23 32.76976 -83.38178 15181 ft 334 kts 316°
2026-05-05 00:23 32.78716 -83.39990 14703 ft 333 kts 317°
2026-05-05 00:23 32.80435 -83.41782 14273 ft 330 kts 317°
2026-05-05 00:24 32.82151 -83.43572 14061 ft 320 kts 317°
2026-05-05 00:24 32.83806 -83.45297 14001 ft 315 kts 317°
2026-05-05 00:24 32.85450 -83.47014 13993 ft 319 kts 317°
2026-05-05 00:24 32.87124 -83.48763 13997 ft 318 kts 317°
2026-05-05 00:25 32.88799 -83.50513 13993 ft 318 kts 317°
2026-05-05 00:25 32.90449 -83.52238 13989 ft 318 kts 317°
2026-05-05 00:25 32.92120 -83.53985 14000 ft 319 kts 317°
2026-05-05 00:25 32.93788 -83.55730 13992 ft 319 kts 317°
2026-05-05 00:26 32.95420 -83.57439 13990 ft 309 kts 317°
2026-05-05 00:26 32.97019 -83.59112 13991 ft 303 kts 317°
2026-05-05 00:26 32.98589 -83.60758 13879 ft 302 kts 317°
2026-05-05 00:26 33.00180 -83.62428 13499 ft 303 kts 317°
2026-05-05 00:27 33.01767 -83.64093 13080 ft 302 kts 317°
2026-05-05 00:27 33.03316 -83.65718 12870 ft 294 kts 317°
2026-05-05 00:27 33.04843 -83.67320 12570 ft 289 kts 317°
2026-05-05 00:27 33.06356 -83.68909 12154 ft 288 kts 316°
2026-05-05 00:28 33.07843 -83.70473 11770 ft 287 kts 316°
2026-05-05 00:28 33.09325 -83.72032 11392 ft 285 kts 316°
2026-05-05 00:28 33.10799 -83.73582 11202 ft 276 kts 316°
2026-05-05 00:28 33.12231 -83.75087 10912 ft 272 kts 316°
2026-05-05 00:29 33.13642 -83.76575 10548 ft 272 kts 316°
2026-05-05 00:29 33.15058 -83.78066 10203 ft 270 kts 316°
2026-05-05 00:29 33.16482 -83.79569 10040 ft 280 kts 316°
2026-05-05 00:29 33.17957 -83.81127 9978 ft 283 kts 316°
2026-05-05 00:30 33.19399 -83.82685 9919 ft 280 kts 313°
2026-05-05 00:30 33.20781 -83.84342 9688 ft 277 kts 313°
2026-05-05 00:30 33.22099 -83.85908 9585 ft 266 kts 313°
2026-05-05 00:30 33.23391 -83.87443 9425 ft 257 kts 313°
2026-05-05 00:31 33.24659 -83.88951 9077 ft 255 kts 313°
2026-05-05 00:31 33.25900 -83.90430 8730 ft 255 kts 313°
2026-05-05 00:31 33.27155 -83.91928 8418 ft 253 kts 313°
2026-05-05 00:31 33.28399 -83.93412 8101 ft 250 kts 312°
2026-05-05 00:32 33.29620 -83.94869 8003 ft 252 kts 313°
2026-05-05 00:32 33.30869 -83.96362 7961 ft 251 kts 312°
2026-05-05 00:32 33.32110 -83.97848 7943 ft 255 kts 312°
2026-05-05 00:32 33.33378 -83.99370 7952 ft 264 kts 312°
2026-05-05 00:33 33.34680 -84.00928 7954 ft 262 kts 312°
2026-05-05 00:33 33.36062 -84.02317 7937 ft 264 kts 330°
2026-05-05 00:33 33.37812 -84.02926 7871 ft 259 kts 356°
2026-05-05 00:33 33.39582 -84.02955 7775 ft 249 kts 358°
2026-05-05 00:34 33.41277 -84.02962 7545 ft 246 kts 359°
2026-05-05 00:34 33.42985 -84.02940 7217 ft 246 kts 359°
2026-05-05 00:34 33.44699 -84.02917 6907 ft 245 kts 359°
2026-05-05 00:34 33.46402 -84.02899 6623 ft 244 kts 359°
2026-05-05 00:35 33.48072 -84.02882 6502 ft 235 kts 359°
2026-05-05 00:35 33.49696 -84.02865 6252 ft 232 kts 359°
2026-05-05 00:35 33.51293 -84.02851 5967 ft 232 kts 359°
2026-05-05 00:35 33.52912 -84.02840 5681 ft 231 kts 359°
2026-05-05 00:36 33.54497 -84.02933 5416 ft 228 kts 344°
2026-05-05 00:36 33.55880 -84.03783 5113 ft 221 kts 311°
2026-05-05 00:36 33.56698 -84.05305 4813 ft 216 kts 292°
2026-05-05 00:36 33.57344 -84.06909 4541 ft 215 kts 292°
2026-05-05 00:37 33.57995 -84.08530 4274 ft 215 kts 292°
2026-05-05 00:37 33.58635 -84.10125 4060 ft 212 kts 292°
2026-05-05 00:37 33.59278 -84.11727 3994 ft 214 kts 292°
2026-05-05 00:37 33.59925 -84.13339 3983 ft 209 kts 292°
2026-05-05 00:38 33.60528 -84.14830 3973 ft 193 kts 292°
2026-05-05 00:38 33.61094 -84.16231 4009 ft 186 kts 291°
2026-05-05 00:38 33.61650 -84.17622 3986 ft 182 kts 291°
2026-05-05 00:38 33.62184 -84.18949 3985 ft 174 kts 291°
2026-05-05 00:39 33.62707 -84.20260 3983 ft 173 kts 290°
2026-05-05 00:39 33.63076 -84.21591 3902 ft 165 kts 275°
2026-05-05 00:39 33.63187 -84.22889 3809 ft 152 kts 267°
2026-05-05 00:39 33.63188 -84.24128 3675 ft 143 kts 264°
2026-05-05 00:40 33.63180 -84.25390 3598 ft 164 kts 265°
2026-05-05 00:40 33.63185 -84.26741 3419 ft 159 kts 265°
2026-05-05 00:40 33.63184 -84.28023 3236 ft 156 kts 265°
2026-05-05 00:40 33.63183 -84.29337 3043 ft 155 kts 265°
2026-05-05 00:41 33.63183 -84.30607 2846 ft 153 kts 265°
2026-05-05 00:41 33.63183 -84.31880 2664 ft 151 kts 265°
2026-05-05 00:41 33.63183 -84.33146 2460 ft 151 kts 264°
2026-05-05 00:41 33.63183 -84.34401 2260 ft 151 kts 265°
2026-05-05 00:42 33.63185 -84.35669 2061 ft 151 kts 265°
2026-05-05 00:42 33.63182 -84.36918 1863 ft 151 kts 265°
2026-05-05 00:42 33.63184 -84.38167 1648 ft 153 kts 266°
2026-05-05 00:42 33.63179 -84.39456 1432 ft 152 kts 268°
2026-05-05 00:43 33.63188 -84.40663 1212 ft 140 kts 266°
2026-05-05 00:43 33.63185 -84.41778 1060 ft 128 kts 267°
2026-05-05 00:43 33.63183 -84.42759 1006 ft 95 kts 270°
2026-05-05 00:43 33.63185 -84.43313 1008 ft 41 kts 272°
2026-05-05 00:44 33.63228 -84.43620 1007 ft 30 kts 292°
2026-05-05 00:44 33.63288 -84.43751 1006 ft 11 kts 303°
2026-05-05 00:44 33.63332 -84.43839 1006 ft 14 kts 297°
2026-05-05 00:44 33.63364 -84.43952 1006 ft 15 kts 279°
2026-05-05 00:45 33.63362 -84.44090 1005 ft 18 kts 268°
2026-05-05 00:45 33.63362 -84.44245 1006 ft 19 kts 270°
2026-05-05 00:45 33.63363 -84.44413 1006 ft 21 kts 271°
2026-05-05 00:45 33.63363 -84.44598 1006 ft 23 kts 269°
2026-05-05 00:46 33.63364 -84.44731 1006 ft 8 kts 280°
2026-05-05 00:46 33.63376 -84.44758 1006 ft 0 kts 308°
2026-05-05 00:46 33.63381 -84.44766 1006 ft 3 kts 309°
2026-05-05 00:46 33.63406 -84.44790 1006 ft 6 kts 334°
2026-05-05 00:47 33.63457 -84.44788 1006 ft 9 kts
2026-05-05 00:47 33.63536 -84.44779 1005 ft 13 kts
2026-05-05 00:47 33.63633 -84.44755 1006 ft 16 kts 37°
2026-05-05 00:47 33.63663 -84.44629 1006 ft 17 kts 90°
2026-05-05 00:48 33.63663 -84.44477 1006 ft 19 kts 89°
2026-05-05 00:48 33.63663 -84.44311 1006 ft 21 kts 90°
2026-05-05 00:48 33.63664 -84.44180 1006 ft 12 kts 91°
2026-05-05 00:48 33.63680 -84.44072 1006 ft 15 kts 46°
2026-05-05 00:49 33.63765 -84.44049 1006 ft 10 kts
2026-05-05 00:49 33.63827 -84.44049 1006 ft 7 kts
2026-05-05 00:49 33.63890 -84.44047 1006 ft 11 kts
2026-05-05 00:49 33.63942 -84.44023 1006 ft 6 kts 64°
2026-05-05 00:50 33.63946 -84.43980 1006 ft 4 kts 89°
2026-05-05 00:50 33.63946 -84.43974 1006 ft 2 kts 90°
2026-05-05 00:50 33.63946 -84.43972 1006 ft 0 kts 90°